Starlink 31233

operational
NORAD ID: 58826 Int'l Des: 2024-017 Owner: SPXS Country: US Constellation: starlink
LEOCIRCULAR

About Starlink 31233

Description loading...

Live Position

Loading 3D Globe...

Upcoming Passes

Altitude History

Altitude vs Time

uPlot chart will show altitude changes over time

Two-Line Element Set

1 58826U 24017A 25258.49370003 -.00000587 00000-0 -76804-5 0 9993
2 58826 53.1602 298.0446 0001284 87.6348 272.4800 15.30192270 93355
Epoch: Sep 15, 2025 • Age: 14 hours

Current Status

Altitude 476.8 km
Velocity 7.63 km/s
Sub-Earth Point 32.61°N, 63.64°W
Launch Date Jan 24, 2024
Age 1.6 years
Type internet

Technical Details

Classification Payload
Mass 730.00 kg
Dry Mass 700.00 kg
Total Mass 730.00 kg
Length 0.30 m
Diameter 4.10 m
Span 29.00 m
Shape Box + pan
Manufacturer SPXS
Bus Type Starlink V2M
Phase Status In Orbit
Owner/State SPXS/US

Large Constellations

Loading constellations...